Location: Celina Elementary School
(33.3262°N, 96.7767°W)
Time: 08:42:11
(UTC+00:00)

Chandra Rocket (1) - Pass Details

Date: 26 November 2021
Orbit: 356 x 10983 km, 28.4° (Epoch: 19 January)

Event Time Altitude Azimuth Distance (km) Brightness Sun altitude
Exits shadow 12:02:56 14° 237° (WSW) 1,329 3.4 -13.7°
Maximum altitude 12:04:20 18° 202° (SSW) 1,025 3.2 -13.4°
Drops below altitude 10° 12:06:11 10° 154° (SSE) 1,312 4.4 -13.0°
Sets 12:08:28 0° 130° (SE) 2,246 6.3 -12.6°
